SPHEREX DEB, 63332

Orbit data source: Space-Track

SPHEREX DEB, 63332 is space debris in SSO originally from a launch on Wed, 12 Mar 2025 UTC launched from the Air Force Western Test Range (AFWTR). Debris objects in space refer to the collection of defunct objects orbiting the Earth. Examples of debris include non-operational satellites, rocket bodies, and fragments generated from explosions, collisions, or faulty payload assembly.

Loading next visibility...
Identifier
63332, 2025-047F
Orbit
SSO
Country
Flag of USUS
Related business
Manufacturer
BAEB
Mission
Spacecraft
Bus & Motor
SPHEREX, Unknown motor
Mass
~5 kg wet, ~5 kg dry
Launch date (UTC)
2025-03-12 (8 months ago)
Launch vehicle
Unknown
Launch site
Air Force Western Test Range (AFWTR)
Object type
Payload
Rocket body
Debris
Shape & HBR
Cyl, 0.2 m
Radar Cross Section
0.188 m², Medium (>0.1 m² and < 1m²)

Expand to show TLE details & history
Last TLE update: 18 hours ago

TLE from 18 hours ago
0 SPHEREX DEB
1 63332U 25047F   25308.26191655  .00008519  00000-0  12130-2 0  9990
2 63332  97.9508 133.0820 0007498 176.8379 183.2880 14.77042929 33868
Epoch: 2025-11-04T06:17Z
TLE epoch observation values (Epoch: 2025-11-04T06:17:09.589Z)
Latitude
-0.00004°
Longitude
-4.95942°
Altitude
646.943 km
Speed
7.532 km/s
True Right ascension
08h 52m 19s
True Declination
0° 00' 00"
Sunlit
Object was in daylight at epoch
Visualization orbit readout
Latitude
Unknown
Longitude
Unknown
Altitude
Unknown
Speed
Unknown
Apparent Right ascension
Unknown
Apparent Declination
Unknown
Sunlit
N/A
Visualization observer readout
Local Sidereal Time
20:37:47
Azimuth
Unknown
Elevation
Unknown
Doppler factor
Unknown
Orbital elements
Apogee altitude
640.98 km
Perigee altitude
630.462 km
Semi-major axis
7,013.858 km
Eccentricity
0.00075
Inclination
97.9508°
RAAN
133.082°
Arg. of periapsis
176.8379°
True anomaly
183.28308°
Mean anomaly
183.288°
Eccentric anomaly
183.28554°
Mean motion
3.69494 °/min
Orbital period
97.43 mins
BSTAR
0.001213
Loading maneuver chart data...
Computing Atmospheric mass density...
Loading historical data...
Loading historical data...
Loading historical data...
Loading historical data...
Loading historical data...
Loading historical data...
Loading historical data...
Other satellites on launch #47 in the year 2025 (2025-03-12 UTC)

Documentation

Showing up to 5 results
|